Flag for Germany Weather past 2 weeks in Wermelskirchen, North Rhine-Westphalia, Germany

Now
54 °F

Partly sunny.


Feels Like: 51 °F
Forecast: 38 / 59 °F
Wind: 9 mph from Northwest

Location: Koeln / Bonn

Current Time: May 26, 2015 at 10:21:52 AM

Latest Report: May 26, 2015 at 9:50 AM


Visibility: N/A

Pressure: 30.12 "Hg

Humidity: 58%

Dew point: 39 °F

Location of WermelskirchenLocation

Historic Weather in Wermelskirchen — Graph

°F

Wermelskirchen temperature yesterday

Maximum temperature yesterday: 61 °F (at 3:20 PM)
Minimum temperature yesterday: 46 °F (at 2:50 AM)
Average temperature yesterday: 54 °F

Past Weeks' High & Low Weather Summary

 TemperatureHumidityPressure
High79 °F (May 11, 4:50 PM)94% (May 15, 7:20 AM)30.33 "Hg (May 15, 7:20 AM)
Low39 °F (May 17, 4:50 AM)26% (May 14, 3:50 PM)29.65 "Hg (May 18, 7:20 PM)
Average56 °F64%30.06 "Hg
* Reported May 11 9:20 AM — May 26 9:20 AM, Wermelskirchen, Weather by CustomWeather, © 2015

Note: Actual official high and low records may vary slightly from our data, if they occured in-between our weather recording intervals... More about our weather records

Advertising

Wermelskirchen weather history for previous 24 hours

 ConditionsComfort  
Time TempWeatherWind HumidityBarometerVisibility
9:20 AM
Tue, May 26
52 °FPartly sunny.10 mph67%30.12 "HgN/A
8:50 AM52 °FPartly sunny.9 mph67%30.09 "HgN/A
8:20 AM50 °FPartly sunny.10 mph71%30.09 "HgN/A
7:50 AM50 °FPartly sunny.9 mph76%30.09 "HgN/A
7:20 AM50 °FPartly sunny.10 mph71%30.07 "HgN/A
6:50 AM48 °FPartly sunny.9 mph76%30.07 "HgN/A
6:20 AM48 °FPassing clouds.8 mph76%30.07 "HgN/A
5:50 AM50 °FPassing clouds.7 mph71%30.07 "HgN/A
5:20 AM50 °FPassing clouds.8 mph71%30.07 "HgN/A
4:50 AM50 °FPassing clouds.7 mph71%30.04 "HgN/A
4:20 AM50 °FPartly cloudy.10 mph71%30.04 "HgN/A
3:50 AM50 °FPassing clouds.8 mph71%30.04 "HgN/A
3:20 AM50 °FPassing clouds.10 mph71%30.04 "HgN/A
2:50 AM52 °FPassing clouds.10 mph67%30.04 "HgN/A
2:20 AM52 °FPassing clouds.10 mph72%30.04 "HgN/A
1:50 AM52 °FPartly cloudy.8 mph72%30.01 "HgN/A
1:20 AM52 °FPartly cloudy.9 mph72%30.01 "HgN/A
12:50 AM54 °FPartly cloudy.9 mph67%30.01 "HgN/A
12:20 AM52 °FPassing clouds.9 mph72%30.01 "HgN/A
11:50 PM
Mon, May 25
52 °FPassing clouds.8 mph72%30.01 "HgN/A
11:20 PM52 °FClear.8 mph67%30.01 "Hg10 mi
10:20 PM55 °FSunny.7 mph63%30.01 "Hg10 mi
9:50 PM55 °FSunny.10 mph63%29.98 "Hg10 mi
9:20 PM55 °FPartly sunny.7 mph63%29.98 "HgN/A
8:50 PM57 °FPartly sunny.8 mph59%29.98 "HgN/A
8:20 PM59 °FPartly sunny.7 mph59%29.95 "HgN/A
7:50 PM59 °FPartly sunny.9 mph59%29.95 "HgN/A
7:20 PM59 °FPartly sunny.10 mph59%29.95 "HgN/A
6:50 PM59 °FPartly sunny.8 mph59%29.95 "HgN/A
6:20 PM61 °FScattered clouds.9 mph59%29.95 "HgN/A
5:50 PM61 °FScattered clouds.10 mph55%29.95 "HgN/A
5:20 PM61 °FScattered clouds.12 mph63%29.95 "HgN/A
4:50 PM61 °FBroken clouds.9 mph68%29.95 "HgN/A
4:20 PM61 °FPartly sunny.8 mph68%29.95 "HgN/A
3:50 PM61 °FBroken clouds.9 mph72%29.95 "HgN/A
3:20 PM61 °FPartly sunny.6 mph68%29.95 "HgN/A
2:50 PM59 °FBroken clouds.7 mph77%29.95 "HgN/A
2:20 PM57 °FBroken clouds.6 mph88%29.98 "HgN/A
1:50 PM57 °FDrizzle. Partly sunny.6 mph82%29.98 "HgN/A
1:20 PM55 °FPartly sunny.5 mph88%29.98 "HgN/A
12:50 PM54 °FDrizzle. Broken clouds.3 mph94%29.98 "Hg4 mi
12:20 PM54 °FDrizzle. Broken clouds.3 mph88%29.98 "Hg3 mi
11:50 AM54 °FDrizzle. Partly sunny.3 mph88%29.98 "Hg4 mi
11:20 AM54 °FLight rain. Partly sunny.3 mph88%29.98 "HgN/A
10:50 AM54 °FPartly sunny.3 mph82%30.01 "HgN/A
10:20 AM54 °FLight rain. Broken clouds.5 mph82%30.01 "HgN/A
Weather by CustomWeather, © 2015

See weather overviewHow to use our weather pages